When you browse on this site, cookies collect data to enhance your experience and personalize the content and advertising you see.
Visit our Privacy Policy to learn more. By continuing to use the site, you agree to this use of cookies and data.
  • în România
  • Lista ţărilor
  • Pe 7 zile
  • Temperatura apei
  • Hartă satelitară
  • Meteo pe hartă
  • Widget-uri
  • user-avatar
    Intrare

    Meteo pe oră la Kargino

    Astăzi, 23 Iulie, Marţi

    Timp Temperatura Precipitaţii Vânt Presiune Umiditate
    00:00 +15°C° 0 mm 2 m/s 744 mmHg 93%
    01:00 +14°C° 0 mm 2 m/s 744 mmHg 94%
    02:00 +14°C° 0 mm 2 m/s 744 mmHg 95%
    03:00 +14°C° 0 mm 2 m/s 744 mmHg 96%
    04:00 +13°C° 0 mm 2 m/s 744 mmHg 96%
    05:00 +14°C° 0 mm 2 m/s 745 mmHg 95%
    06:00 +15°C° 0 mm 2 m/s 745 mmHg 95%
    07:00 +16°C° 0 mm 2 m/s 745 mmHg 94%
    08:00 +17°C° 0 mm 3 m/s 745 mmHg 91%
    09:00 +18°C° 0 mm 3 m/s 745 mmHg 87%
    10:00 +19°C° 0 mm 4 m/s 745 mmHg 84%
    11:00 +20°C° 0.6 mm 4 m/s 745 mmHg 82%
    12:00 +20°C° 0.6 mm 4 m/s 746 mmHg 81%
    13:00 +21°C° 0.6 mm 5 m/s 746 mmHg 79%
    14:00 +21°C° 0.8 mm 5 m/s 746 mmHg 80%
    15:00 +20°C° 0.8 mm 5 m/s 746 mmHg 81%
    16:00 +20°C° 0.8 mm 5 m/s 746 mmHg 82%
    17:00 +20°C° 0.3 mm 4 m/s 746 mmHg 84%
    18:00 +19°C° 0.3 mm 4 m/s 746 mmHg 86%
    19:00 +19°C° 0.3 mm 3 m/s 746 mmHg 89%
    20:00 +18°C° 0 mm 3 m/s 746 mmHg 90%
    21:00 +16°C° 0 mm 3 m/s 747 mmHg 92%
    22:00 +14°C° 0 mm 3 m/s 747 mmHg 94%
    23:00 +14°C° 0 mm 3 m/s 747 mmHg 95%

    Mâine, 24 Iulie, Miercuri

    Timp Temperatura Precipitaţii Vânt Presiune Umiditate
    00:00 +14°C° 0 mm 3 m/s 747 mmHg 95%
    01:00 +13°C° 0 mm 3 m/s 747 mmHg 96%
    02:00 +14°C° 0 mm 2 m/s 747 mmHg 96%
    03:00 +14°C° 0 mm 2 m/s 747 mmHg 96%
    04:00 +13°C° 0 mm 2 m/s 748 mmHg 97%
    05:00 +15°C° 0 mm 2 m/s 748 mmHg 95%
    06:00 +16°C° 0 mm 2 m/s 748 mmHg 94%
    07:00 +17°C° 0 mm 2 m/s 748 mmHg 93%
    08:00 +18°C° 0 mm 2 m/s 748 mmHg 88%
    09:00 +20°C° 0 mm 2 m/s 748 mmHg 83%
    10:00 +21°C° 0 mm 2 m/s 749 mmHg 78%
    11:00 +23°C° 0.3 mm 2 m/s 749 mmHg 77%
    12:00 +22°C° 0.3 mm 3 m/s 749 mmHg 76%
    13:00 +24°C° 0.3 mm 3 m/s 749 mmHg 75%
    14:00 +24°C° 0.7 mm 3 m/s 749 mmHg 75%
    15:00 +25°C° 0.7 mm 3 m/s 749 mmHg 74%
    16:00 +25°C° 0.7 mm 3 m/s 749 mmHg 74%
    17:00 +24°C° 0.3 mm 2 m/s 749 mmHg 77%
    18:00 +24°C° 0.3 mm 2 m/s 749 mmHg 80%
    19:00 +23°C° 0.3 mm 2 m/s 749 mmHg 84%
    20:00 +21°C° 0.1 mm 2 m/s 749 mmHg 85%
    21:00 +19°C° 0.1 mm 2 m/s 749 mmHg 87%
    22:00 +18°C° 0.1 mm 2 m/s 749 mmHg 89%
    23:00 +17°C° 0 mm 2 m/s 750 mmHg 89%

    Poimâine, 25 Iulie, Joi

    Timp Temperatura Precipitaţii Vânt Presiune Umiditate
    00:00 +17°C° 0 mm 2 m/s 750 mmHg 90%
    01:00 +16°C° 0 mm 2 m/s 750 mmHg 91%
    02:00 +16°C° 0 mm 2 m/s 750 mmHg 91%
    03:00 +16°C° 0 mm 2 m/s 750 mmHg 91%
    04:00 +15°C° 0 mm 2 m/s 750 mmHg 91%
    05:00 +16°C° 0 mm 2 m/s 750 mmHg 90%
    06:00 +18°C° 0 mm 2 m/s 751 mmHg 88%
    07:00 +19°C° 0 mm 3 m/s 751 mmHg 87%
    08:00 +20°C° 0 mm 3 m/s 751 mmHg 82%
    09:00 +22°C° 0 mm 3 m/s 751 mmHg 76%
    10:00 +25°C° 0 mm 3 m/s 751 mmHg 71%
    11:00 +25°C° 0 mm 3 m/s 751 mmHg 67%
    12:00 +26°C° 0 mm 3 m/s 751 mmHg 63%
    13:00 +27°C° 0 mm 4 m/s 751 mmHg 58%
    14:00 +27°C° 0 mm 4 m/s 751 mmHg 59%
    15:00 +27°C° 0 mm 4 m/s 751 mmHg 61%
    16:00 +28°C° 0 mm 3 m/s 751 mmHg 62%
    17:00 +26°C° 0 mm 3 m/s 751 mmHg 67%
    18:00 +25°C° 0 mm 3 m/s 751 mmHg 72%
    19:00 +24°C° 0 mm 3 m/s 751 mmHg 77%
    20:00 +22°C° 0 mm 3 m/s 751 mmHg 79%
    21:00 +20°C° 0 mm 3 m/s 751 mmHg 81%
    22:00 +19°C° 0 mm 3 m/s 751 mmHg 83%
    23:00 +18°C° 0 mm 3 m/s 751 mmHg 83%

    26 Iulie, Vineri

    Timp Temperatura Precipitaţii Vânt Presiune Umiditate
    00:00 +18°C° 0 mm 3 m/s 751 mmHg 83%
    01:00 +17°C° 0 mm 3 m/s 751 mmHg 83%
    02:00 +17°C° 0 mm 2 m/s 751 mmHg 84%
    03:00 +16°C° 0 mm 2 m/s 751 mmHg 84%
    04:00 +16°C° 0 mm 2 m/s 751 mmHg 85%
    05:00 +18°C° 0 mm 1 m/s 751 mmHg 81%
    06:00 +20°C° 0 mm 1 m/s 751 mmHg 78%
    07:00 +21°C° 0 mm 1 m/s 751 mmHg 74%
    08:00 +22°C° 0 mm 1 m/s 751 mmHg 70%
    09:00 +24°C° 0 mm 1 m/s 751 mmHg 65%
    10:00 +25°C° 0 mm 1 m/s 751 mmHg 61%
    11:00 +26°C° 0 mm 2 m/s 751 mmHg 59%
    12:00 +27°C° 0 mm 2 m/s 751 mmHg 57%
    13:00 +27°C° 0 mm 2 m/s 750 mmHg 56%
    14:00 +27°C° 0 mm 2 m/s 750 mmHg 56%
    15:00 +27°C° 0 mm 2 m/s 750 mmHg 57%
    16:00 +28°C° 0 mm 2 m/s 749 mmHg 57%
    17:00 +27°C° 0 mm 2 m/s 749 mmHg 63%
    18:00 +26°C° 0 mm 2 m/s 749 mmHg 68%
    19:00 +25°C° 0 mm 2 m/s 749 mmHg 74%
    20:00 +23°C° 0 mm 2 m/s 749 mmHg 78%
    21:00 +21°C° 0 mm 2 m/s 748 mmHg 82%
    22:00 +19°C° 0 mm 2 m/s 748 mmHg 85%
    23:00 +18°C° 0 mm 2 m/s 748 mmHg 86%

    27 Iulie, Sâmbătă

    Timp Temperatura Precipitaţii Vânt Presiune Umiditate
    00:00 +18°C° 0 mm 2 m/s 748 mmHg 87%
    01:00 +18°C° 0 mm 1 m/s 748 mmHg 88%
    02:00 +18°C° 0 mm 1 m/s 747 mmHg 88%
    03:00 +18°C° 0 mm 1 m/s 747 mmHg 87%
    04:00 +16°C° 0 mm 1 m/s 747 mmHg 87%
    05:00 +18°C° 0 mm 1 m/s 747 mmHg 84%
    06:00 +18°C° 0 mm 0 m/s 746 mmHg 81%
    07:00 +19°C° 0 mm 0 m/s 746 mmHg 78%
    08:00 +20°C° 0.1 mm 0 m/s 746 mmHg 75%
    09:00 +21°C° 0.1 mm 0 m/s 746 mmHg 72%
    10:00 +23°C° 0.1 mm 0 m/s 745 mmHg 69%
    11:00 +25°C° 0.3 mm 1 m/s 745 mmHg 65%
    12:00 +26°C° 0.3 mm 1 m/s 744 mmHg 61%
    13:00 +27°C° 0.3 mm 1 m/s 744 mmHg 56%
    14:00 +27°C° 0.1 mm 1 m/s 744 mmHg 56%
    15:00 +25°C° 0.1 mm 0 m/s 743 mmHg 56%
    16:00 +25°C° 0.1 mm 0 m/s 742 mmHg 56%
    17:00 +26°C° 0.4 mm 1 m/s 742 mmHg 65%
    18:00 +24°C° 0.4 mm 1 m/s 741 mmHg 73%
    19:00 +23°C° 0.4 mm 2 m/s 741 mmHg 82%
    20:00 +22°C° 0 mm 1 m/s 741 mmHg 82%
    21:00 +20°C° 0 mm 1 m/s 740 mmHg 83%
    22:00 +17°C° 0 mm 0 m/s 740 mmHg 83%
    23:00 +19°C° 0 mm 1 m/s 739 mmHg 85%

    28 Iulie, Duminică

    Timp Temperatura Precipitaţii Vânt Presiune Umiditate
    00:00 +18°C° 0 mm 1 m/s 739 mmHg 86%
    01:00 +18°C° 0 mm 1 m/s 738 mmHg 87%
    02:00 +16°C° 0 mm 1 m/s 738 mmHg 89%
    03:00 +16°C° 0 mm 2 m/s 737 mmHg 90%
    04:00 +16°C° 0 mm 2 m/s 737 mmHg 92%
    05:00 +17°C° 0.2 mm 2 m/s 736 mmHg 91%
    06:00 +17°C° 0.2 mm 2 m/s 736 mmHg 91%
    07:00 +18°C° 0.2 mm 3 m/s 735 mmHg 90%
    08:00 +19°C° 0.8 mm 3 m/s 735 mmHg 87%
    09:00 +20°C° 0.8 mm 3 m/s 734 mmHg 84%
    10:00 +21°C° 0.8 mm 3 m/s 733 mmHg 82%
    11:00 +22°C° 1.7 mm 3 m/s 733 mmHg 80%
    12:00 +22°C° 1.7 mm 3 m/s 733 mmHg 79%
    13:00 +22°C° 1.7 mm 3 m/s 733 mmHg 77%
    14:00 +22°C° 1.2 mm 3 m/s 733 mmHg 80%
    15:00 +21°C° 1.2 mm 4 m/s 732 mmHg 83%
    16:00 +20°C° 1.2 mm 4 m/s 732 mmHg 85%
    17:00 +18°C° 0.4 mm 4 m/s 732 mmHg 89%
    18:00 +15°C° 0.4 mm 4 m/s 732 mmHg 92%
    19:00 +13°C° 0.4 mm 4 m/s 732 mmHg 96%
    20:00 +12°C° 0.5 mm 4 m/s 732 mmHg 96%
    21:00 +12°C° 0.5 mm 4 m/s 732 mmHg 96%
    22:00 +12°C° 0.5 mm 4 m/s 732 mmHg 97%
    23:00 +12°C° 0.1 mm 4 m/s 732 mmHg 96%
    Arată mai mult